📊 Raw Sensor Data
Showing records 41151 to 41175 of 84,977 total
| ID | Distance (ft) | Battery V | Battery A | Int Temp (°F) | Int Humid (%) | Ext Temp (°F) | Solar V | RSSI | SNR | Time Stamp |
|---|---|---|---|---|---|---|---|---|---|---|
| 43839 | 15.2 | 3.96 | 0 | 81 | 43 | 79 | 5.10 | -68 | 7 | 06/18/2025 10:30 AM |
| 43838 | 15.2 | 3.96 | 0 | 80 | 43 | 81 | 5.10 | -67 | 8 | 06/18/2025 10:15 AM |
| 43837 | 15.3 | 3.96 | 0 | 79 | 43 | 78 | 5.10 | -67 | 8 | 06/18/2025 10:00 AM |
| 43836 | 15.2 | 3.96 | 0 | 77 | 44 | 80 | 5.10 | -67 | 8 | 06/18/2025 09:45 AM |
| 43835 | 15.3 | 3.96 | 0 | 77 | 44 | 76 | 5.10 | -67 | 8 | 06/18/2025 09:30 AM |
| 43834 | 15.3 | 3.96 | 0 | 77 | 44 | 80 | 5.10 | -68 | 8 | 06/18/2025 09:15 AM |
| 43833 | 15.3 | 4.13 | 0 | 75 | 44 | 81 | 5.10 | -67 | 8 | 06/18/2025 09:00 AM |
| 43832 | 15.3 | 4.02 | 0 | 74 | 44 | 76 | 5.10 | -67 | 7 | 06/18/2025 08:45 AM |
| 43831 | 15.3 | 3.96 | 0 | 72 | 44 | 77 | 5.10 | -67 | 8 | 06/18/2025 08:30 AM |
| 43830 | 15.3 | 3.96 | 0 | 71 | 43 | 77 | 5.10 | -68 | 8 | 06/18/2025 08:15 AM |
| 43829 | 15.3 | 3.95 | 0 | 70 | 43 | 73 | 5.10 | -68 | 8 | 06/18/2025 08:00 AM |
| 43828 | 15.2 | 3.95 | 0 | 67 | 42 | 73 | 5.10 | -67 | 8 | 06/18/2025 07:30 AM |
| 43827 | 15.2 | 3.98 | 20 | 65 | 41 | 72 | 4.50 | -67 | 7 | 06/18/2025 07:15 AM |
| 43826 | 15.2 | 4.03 | 9 | 63 | 41 | 73 | 4.50 | -67 | 8 | 06/18/2025 07:00 AM |
| 43825 | 15.1 | 4.01 | 0 | 60 | 41 | 68 | 4.50 | -67 | 8 | 06/18/2025 06:45 AM |
| 43824 | 15.0 | 3.85 | 0 | 57 | 42 | 63 | 4.50 | -68 | 8 | 06/18/2025 06:30 AM |
| 43823 | 15.0 | 3.83 | 0 | 55 | 42 | 59 | 4.50 | -67 | 7 | 06/18/2025 06:15 AM |
| 43822 | 15.0 | 3.95 | -7 | 53 | 43 | 57 | 4.50 | -68 | 8 | 06/18/2025 06:00 AM |
| 43821 | 14.9 | 3.81 | -10 | 52 | 43 | 53 | 3.00 | -67 | 8 | 06/18/2025 05:45 AM |
| 43820 | 14.9 | 3.82 | -5 | 52 | 43 | 55 | 1.00 | -67 | 8 | 06/18/2025 05:30 AM |
| 43819 | 15.0 | 3.96 | -5 | 53 | 43 | 54 | 0.00 | -67 | 8 | 06/18/2025 05:15 AM |
| 43818 | 14.9 | 3.80 | -5 | 53 | 43 | 55 | 0.00 | -68 | 8 | 06/18/2025 05:00 AM |
| 43817 | 15.0 | 3.80 | -5 | 53 | 43 | 55 | 0.00 | -67 | 8 | 06/18/2025 04:45 AM |
| 43816 | 14.9 | 3.96 | -5 | 53 | 43 | 55 | 0.00 | -66 | 8 | 06/18/2025 04:30 AM |
| 43815 | 14.9 | 3.81 | -5 | 53 | 43 | 55 | 0.00 | -67 | 8 | 06/18/2025 04:15 AM |